Location: Austin
(30.3000°N, 97.7500°W)
Time: 22:58:21
(UTC-05:00)

Daily predictions for brighter satellites

Satellite Brightness Start Highest point End
(mag) Time Altitude Azimuth Time Altitude Azimuth Time Altitude Azimuth
Meteor 2-14 Rocket 4.4 19:11:43 10° S 19:17:47 75° E 19:23:52 10° N
SEDSat Delta rocket 4.0 19:14:08 10° W 19:18:08 43° SSW 19:22:32 10° SE
Meteor 2-16 Rocket 4.5 19:14:17 10° S 19:20:17 65° E 19:26:19 10° NNE
Cosmos-2242 3.4 19:18:30 10° SSW 19:22:45 68° W 19:27:00 10° N
ASTRO E2 2.7 19:22:28 10° WSW 19:26:28 82° SSE 19:30:28 10° E
Tiangong 1 2.4 19:25:36 10° NNW 19:27:43 20° NNE 19:29:46 10° ENE
Cosmos 1400 Rocket 3.8 19:24:23 10° NNE 19:27:48 26° ENE 19:31:08 10° SE
IRS-1A Rocket 4.4 19:22:57 10° SSE 19:28:46 90° ENE 19:34:40 10° NNW
ERS-2 2.4 19:25:45 10° S 19:29:25 73° WSW 19:33:06 10° NNW
Cosmos 1624 Rocket 4.2 19:27:20 10° N 19:32:25 51° ENE 19:37:30 10° SSE
Cosmos 1371 Rocket 4.0 19:29:25 10° N 19:34:47 68° ENE 19:40:04 10° SSE
SKYMED 2 3.6 19:30:35 10° NNE 19:34:57 89° W 19:39:16 10° SSW
Cosmos 1908 4.3 19:32:13 10° SSE 19:35:28 25° E 19:38:43 10° NE
Thor Agena Rocket 4.2 19:31:04 10° NE 19:35:35 32° E 19:40:04 10° SSE
SL-16 R/B 2.2 19:34:17 10° NNW 19:39:56 66° ENE 19:45:33 10° SSE
Cosmos 1743 Rocket 3.7 19:37:26 10° N 19:41:41 48° E 19:45:56 10° SSE
Cosmos 1842 Rocket 3.5 19:38:28 10° S 19:42:55 74° E 19:47:23 10° N
H-2A R/B 4.4 19:43:00 14° E 19:43:49 15° ENE 19:46:07 10° NE
Cosmos 1766 Rocket 4.4 19:40:10 10° NNW 19:44:31 56° W 19:48:53 10° S
Cosmos 2151 3.4 19:40:39 10° NNE 19:44:38 38° E 19:48:36 10° SSE
Delta 2 Rocket 3.4 19:41:28 10° W 19:45:07 53° NNW 19:47:45 15° ENE
Cosmos 44 4.1 19:41:45 10° SSE 19:45:19 24° ESE 19:47:52 15° ENE
GENESIS II 4.2 19:42:49 10° SSW 19:46:46 68° ESE 19:50:42 10° NNE
Cosmos 1726 4.1 19:47:06 10° SE 19:47:40 12° ESE 19:47:40 12° ESE
APEX 4.0 19:46:43 10° SSE 19:49:56 26° ESE 19:51:17 19° ENE
Cosmos 2221 2.9 19:50:32 10° SSE 19:54:30 38° E 19:58:30 10° NNE
Cosmos 2366 rocket 4.4 19:49:05 10° SSW 19:55:16 66° W 20:01:27 10° N
Cosmos 44 Rocket 3.9 19:51:37 10° S 19:55:49 32° ESE 19:58:42 17° ENE
ISS -3.9 19:54:48 10° NW 19:58:04 80° NE 20:00:17 19° SE
BREEZE-M R/B 3.8 19:56:29 10° SSE 19:57:37 16° SE 19:57:37 16° SE
Milstar 3 Cent rocket 3.8 19:51:58 10° W 20:01:56 45° SSW 20:07:22 10° SE
METEOR-M 4.4 19:57:12 10° S 20:02:31 73° WSW 20:07:53 10° NNW
ATLAS 3B CENTAUR R/B 3.8 19:58:45 10° WSW 20:03:09 35° S 20:13:17 10° SE
SPOT 3 Rocket 3.6 19:58:20 10° SSE 20:03:30 83° WSW 20:08:44 10° NNW
Cosmos 1500 Rocket 3.4 19:59:45 10° N 20:04:04 68° E 20:08:21 10° SSE
Cosmos 158 Rocket 4.0 20:00:18 10° S 20:05:06 53° ESE 20:10:03 10° NNE
Cosmos 1315 Rocket 3.2 20:04:57 10° N 20:08:48 41° E 20:12:41 10° SSE
BREEZE-M DEB (TANK) 3.0 20:08:36 10° NNW 20:09:32 19° N 20:09:32 19° N
Cosmos 921 Rocket 3.7 20:07:18 10° N 20:11:18 32° ENE 20:11:49 31° E
Cosmos 1269 Rocket 4.3 20:06:40 10° S 20:11:36 43° ESE 20:16:34 10° NNE
COSMOS 2428 4.0 20:12:48 10° NNE 20:16:19 21° NE 20:16:19 21° NE
Cosmos 2098 Rocket 3.0 20:14:46 10° SSE 20:18:22 48° E 20:22:53 10° NNE
NOAA 12 4.2 20:13:38 10° S 20:18:54 79° WSW 20:24:13 10° NNW
Cosmos 2058 3.0 20:14:49 10° N 20:19:00 75° W 20:23:06 10° S
Cosmos 2056 Rocket 4.2 20:14:40 10° NNW 20:19:50 55° WSW 20:24:53 10° S
FengYun 1-2 T 4.3 20:15:17 10° SSE 20:20:36 52° ENE 20:25:55 10° N
Cosmos 2219 3.3 20:17:18 10° S 20:22:52 54° ESE 20:27:40 14° NNE
RESURS DK-1 2.9 20:19:41 10° N 20:23:04 38° NE 20:23:04 38° NE
Cosmos 1626 3.6 20:20:34 10° NNW 20:24:04 39° W 20:27:33 10° SSW
Cosmos 2360 Rocket 2.2 20:18:36 10° NNW 20:24:12 60° ENE 20:28:04 20° SE
SJ-6B 4.5 20:30:52 20° NNE 20:30:52 20° NNE 20:32:12 10° N
Cosmos 2322 Rocket 3.5 20:24:57 10° NW 20:30:10 41° WSW 20:35:24 10° S
SL-24 R/B - RUBIN 2 4.3 20:27:09 10° NNW 20:30:52 36° NE 20:30:52 36° NE
Cosmos 1821 Rocket 3.8 20:26:48 10° S 20:32:53 77° E 20:39:04 10° N
Cosmos 1452 Rocket 3.3 20:32:35 10° NNW 20:37:50 78° ENE 20:40:42 28° SSE
Cosmos 1000 Rocket 4.3 20:34:51 10° N 20:41:05 74° E 20:47:13 10° S
Cosmos 2239 Rocket 4.4 20:35:46 10° S 20:41:54 89° WNW 20:48:03 10° N
Cosmos 1934 Rocket 3.9 20:35:54 10° S 20:42:09 68° E 20:48:27 10° NNE
USA 267 3.7 20:37:02 11° NNE 20:43:07 58° NW 20:49:29 10° WSW
ALOS 3.6 20:40:44 10° SSW 20:45:04 39° W 20:49:26 10° NNW
Atlas Centaur 2 2.1 20:40:35 10° W 20:45:52 88° S 20:47:12 57° E
DELTA 2 R/B (1) 4.4 20:40:53 10° NW 20:45:59 35° N 20:46:42 34° NNE
Cosmos 2322 3.5 20:44:04 10° NNW 20:49:49 81° ENE 20:51:21 50° SSE
CZ-4C R/B 2.1 20:50:47 10° SW 20:55:46 71° WNW 20:57:35 42° NNE
ATLAS 2A CENTAUR R/B 3.3 20:53:17 10° SW 20:53:51 16° SW 20:53:51 16° SW
Skynet4D Del rocket 4.4 20:54:23 10° W 21:01:34 69° S 21:03:04 57° SE
Tiangong 1 4.4 21:00:20 10° WNW 21:00:26 11° WNW 21:00:26 11° WNW
ASTRO E2 4.3 21:03:05 10° W 21:05:26 33° WNW 21:05:26 33° WNW
Cosmos 2123 Rocket 4.4 21:01:07 10° N 21:05:32 46° NNE 21:05:32 46° NNE
Cosmos 2219 Rocket 4.1 21:09:34 10° N 21:11:01 18° N 21:11:01 18° N
FALCON 9 R/B 3.9 21:23:55 10° WSW 21:25:33 19° SW 21:25:33 19° SW
Centaur D AC-28 3.3 21:27:14 10° WSW 22:06:22 - E 21:30:48 54° SSW
